Погода в Белогорье

Россия / Воронежская область     50°29′35″N   40°00′11″E
темп.,
°C
ветер,
м/с
пор.,
м/с
влажн.,
%
обл.,
%
осадки,
мм/ч
давл.,
гПа
погр.,
м
8 мая, сб
сб800:00+8ююв3580100 0.0 1017104
03:00+7юв368089 0.0 1017112
06:00+8юв3977100 0.0 1015232
09:00+13ююв71060100 0.0 1014549
12:00+14ююв61163100 0.0 1012591
15:00+15ю6117799 0.1 1009688
18:00+17ю71366100 0.9 1007615
21:00+13зюз3889100 1.2 1008328
9 мая, вс
вс900:00+11з5992100 0.1 1008445
03:00+7зсз71289100 0.4 1010502
06:00+5сз71289100 1.2 1011606
09:00+7сз71082100 2.0 10141016
12:00+8ссз81074100 0.1 10151165
15:00+8ссз81169100 0.3 10171340
18:00+9ссз71165100 0.0 10181257
21:00+7ссз51174100 0.0 1020526
10 мая, пн
пн1000:00+6ссз61379100 0.0 1021589
03:00+5ссз61576100 0.0 1022618
06:00+6ссз71576100 0.0 10221055
09:00+10с101760100 0.0 10211522
12:00+10с111856100 0.0 10201351
15:00+8с101769100 0.8 1019992
18:00+7с102086100 2.5 1018788
21:00+9ссв112091100 3.9 1017785
11 мая, вт
вт1100:00+9ссв101991100 0.7 1017636
03:00+9ссв91793100 0.9 1016539
06:00+9вюв61094100 2.8 1018597
09:00+8в71184100 2.9 1021990
12:00+13в8115970 0.0 10211616
15:00+12вюв7116597 0.1 10221572
18:00+12в510670 0.0 10221061
21:00+8в22832 0.0 102322
12 мая, ср
ср1200:00+7всв2284100 0.0 102213
03:00+8вюв238195 0.0 102247
06:00+8в24844 0.0 1022126
09:00+14в45625 0.0 1021804
12:00+17вюв455092 0.0 10211676
15:00+18вюв354897 0.0 10191855
18:00+18вюв3460100 0.0 1018205
21:00+13вюв2268100 0.0 101811